KE7MWT Weather Reports


Display with metric or nautical units.
time (UTC)temp
F
wind
direction
speed
MPH
gust
MPH
rain 1hr
in
rain 24hr
in
rain mn
in
humidity
%
barometer
mb
20260504213818 78 212 6.0 13.0 0.00 0.00 0.00 31 1015.8
20260504213328 78 215 7.0 14.0 0.00 0.00 0.00 31 1016.0
20260504212814 78 229 3.0 12.0 0.00 0.00 0.00 31 1016.0
20260504212323 79 231 5.0 11.0 0.00 0.00 0.00 30 1016.1
20260504211829 79 191 5.0 11.0 0.00 0.00 0.00 30 1016.1
20260504211318 79 184 4.0 8.0 0.00 0.00 0.00 30 1016.1
20260504210824 79 215 3.0 10.0 0.00 0.00 0.00 30 1016.1
20260504210340 79 245 3.0 9.0 0.00 0.00 0.00 30 1016.0
20260504205826 80 202 4.0 11.0 0.00 0.00 0.00 30 1016.1
20260504205317 80 193 6.0 11.0 0.00 0.00 0.00 30 1016.0
20260504204823 80 196 6.0 11.0 0.00 0.00 0.00 30 1016.1
20260504204314 80 213 5.0 10.0 0.00 0.00 0.00 31 1016.1
20260504203821 80 234 4.0 11.0 0.00 0.00 0.00 30 1016.0
20260504203332 80 228 5.0 11.0 0.00 0.00 0.00 30 1015.8
20260504202819 80 169 5.0 11.0 0.00 0.00 0.00 31 1015.9
20260504202330 80 241 4.0 10.0 0.00 0.00 0.00 31 1016.0
20260504201815 80 203 5.0 10.0 0.00 0.00 0.00 31 1016.0
20260504201324 79 217 3.0 9.0 0.00 0.00 0.00 31 1016.0
20260504200836 79 190 3.0 9.0 0.00 0.00 0.00 31 1016.0
20260504200323 79 231 4.0 10.0 0.00 0.00 0.00 31 1016.0
20260504195829 79 169 5.0 10.0 0.00 0.00 0.00 31 1016.0
20260504195320 79 253 4.0 9.0 0.00 0.00 0.00 30 1016.1
20260504194847 79 223 4.0 10.0 0.00 0.00 0.00 30 1016.1
20260504194315 80 240 5.0 11.0 0.00 0.00 0.00 30 1016.2
20260504193823 80 220 4.0 11.0 0.00 0.00 0.00 30 1016.3
20260504193334 80 242 6.0 11.0 0.00 0.00 0.00 29 1016.4
20260504192819 80 254 5.0 11.0 0.00 0.00 0.00 30 1016.3
20260504192330 80 225 7.0 11.0 0.00 0.00 0.00 30 1016.3
20260504191816 79 230 4.0 12.0 0.00 0.00 0.00 30 1016.3
20260504191347 79 254 6.0 11.0 0.00 0.00 0.00 30 1016.2
20260504190851 79 261 6.0 11.0 0.00 0.00 0.00 29 1016.0
20260504190326 79 271 4.0 9.0 0.00 0.00 0.00 29 1016.0
20260504185853 79 232 5.0 9.0 0.00 0.00 0.00 29 1016.0
20260504185323 78 218 3.0 8.0 0.00 0.00 0.00 30 1016.0
20260504184830 78 243 4.0 8.0 0.00 0.00 0.00 29 1016.0
20260504184321 78 261 4.0 9.0 0.00 0.00 0.00 30 1015.9
20260504183828 78 265 4.0 12.0 0.00 0.00 0.00 29 1016.2
20260504183318 78 249 3.0 15.0 0.00 0.00 0.00 29 1016.4
20260504182825 78 264 6.0 15.0 0.00 0.00 0.00 29 1016.5
20260504182316 78 221 6.0 12.0 0.00 0.00 0.00 29 1016.6
20260504181824 78 236 4.0 12.0 0.00 0.00 0.00 29 1016.6
20260504181318 78 179 4.0 11.0 0.00 0.00 0.00 31 1016.5
20260504180844 78 194 6.0 11.0 0.00 0.00 0.00 31 1016.4
20260504180314 77 209 4.0 10.0 0.00 0.00 0.00 30 1016.1
20260504175821 77 186 3.0 8.0 0.00 0.00 0.00 30 1016.2
20260504175329 77 186 3.0 8.0 0.00 0.00 0.00 30 1016.1
20260504174835 77 185 5.0 10.0 0.00 0.00 0.00 30 1016.1
20260504174324 77 200 2.0 9.0 0.00 0.00 0.00 28 1016.2
20260504173851 77 207 5.0 10.0 0.00 0.00 0.00 29 1016.2
20260504173321 77 205 6.0 10.0 0.00 0.00 0.00 29 1016.2
20260504172828 77 196 4.0 10.0 0.00 0.00 0.00 29 1016.2
20260504172319 77 194 5.0 12.0 0.00 0.00 0.00 30 1016.4
20260504171847 77 174 6.0 13.0 0.00 0.00 0.00 30 1016.5
20260504171317 77 178 5.0 13.0 0.00 0.00 0.00 31 1016.6
20260504170829 77 198 6.0 10.0 0.00 0.00 0.00 31 1016.6
20260504170321 76 217 4.0 13.0 0.00 0.00 0.00 33 1016.8
20260504160331 75 172 6.0 11.0 0.00 0.00 0.00 33 1016.4
20260504150825 73 186 3.0 8.0 0.00 0.00 0.00 42 1016.1
20260504150317 73 182 2.0 6.0 0.00 0.00 0.00 43 1016.0
20260504141328 72 184 0.0 3.0 0.00 0.00 0.00 43 1015.5
20260504140816 72 184 1.0 5.0 0.00 0.00 0.00 43 1015.6
20260504140327 71 184 1.0 5.0 0.00 0.00 0.00 42 1015.7
20260504130335 71 206 2.0 5.0 0.00 0.00 0.00 40 1015.1
20260504110352 71 209 0.0 0.0 0.00 0.00 0.00 41 1014.4
20260504100329 73 209 0.0 0.0 0.00 0.00 0.00 40 1014.6
20260504081828 75 187 3.0 8.0 0.00 0.00 0.00 34 1014.2
20260504081319 75 185 4.0 8.0 0.00 0.00 0.00 34 1014.3
20260504080847 75 185 2.0 6.0 0.00 0.00 0.00 34 1014.4
20260504080317 76 184 3.0 5.0 0.00 0.00 0.00 34 1014.4
20260504070329 77 188 4.0 11.0 0.00 0.00 0.00 33 1014.4
20260504050319 80 191 5.0 13.0 0.00 0.00 0.00 23 1013.9
20260504045827 80 218 7.0 18.0 0.00 0.00 0.00 22 1014.0
20260504045338 81 200 6.0 18.0 0.00 0.00 0.00 22 1013.9
20260504044844 81 223 8.0 14.0 0.00 0.00 0.00 21 1013.8
20260504044334 81 179 5.0 17.0 0.00 0.00 0.00 20 1013.7
20260504043841 81 177 7.0 17.0 0.00 0.00 0.00 20 1013.8
20260504043331 81 176 4.0 12.0 0.00 0.00 0.00 20 1013.9
20260504042818 82 190 7.0 12.0 0.00 0.00 0.00 19 1013.7
20260504042330 82 178 6.0 22.0 0.00 0.00 0.00 19 1013.6
20260504041822 82 199 6.0 21.0 0.00 0.00 0.00 18 1013.5
20260504041353 82 192 7.0 14.0 0.00 0.00 0.00 18 1013.4
20260504040819 82 195 6.0 14.0 0.00 0.00 0.00 17 1013.3
20260504040329 83 182 8.0 14.0 0.00 0.00 0.00 17 1013.2
20260504035836 83 209 6.0 12.0 0.00 0.00 0.00 18 1013.1
20260504035326 83 193 5.0 14.0 0.00 0.00 0.00 18 1013.1
20260504034814 83 180 7.0 14.0 0.00 0.00 0.00 17 1012.9
20260504034327 83 213 7.0 14.0 0.00 0.00 0.00 17 1012.8
20260504033855 83 192 8.0 16.0 0.00 0.00 0.00 17 1012.6
20260504033326 84 191 6.0 16.0 0.00 0.00 0.00 17 1012.4
20260504032832 84 192 7.0 13.0 0.00 0.00 0.00 16 1012.3
20260504032328 84 195 6.0 20.0 0.00 0.00 0.00 16 1012.3
20260504031817 84 198 9.0 20.0 0.00 0.00 0.00 15 1012.1
20260504031329 84 172 8.0 14.0 0.00 0.00 0.00 15 1012.0
20260504030817 85 193 8.0 14.0 0.00 0.00 0.00 15 1011.8
20260504030328 85 195 8.0 18.0 0.00 0.00 0.00 15 1011.8
20260504025834 85 200 7.0 18.0 0.00 0.00 0.00 14 1011.7
20260504025326 86 184 8.0 15.0 0.00 0.00 0.00 14 1011.4
20260504024834 86 200 6.0 16.0 0.00 0.00 0.00 14 1011.3
20260504024326 86 175 9.0 17.0 0.00 0.00 0.00 14 1011.2
20260504023854 86 233 7.0 15.0 0.00 0.00 0.00 13 1011.0
20260504023327 87 194 8.0 12.0 0.00 0.00 0.00 13 1011.1
20260504022815 87 229 6.0 19.0 0.00 0.00 0.00 13 1011.1
20260504022327 87 182 8.0 19.0 0.00 0.00 0.00 13 1010.8
20260504021814 87 191 7.0 14.0 0.00 0.00 0.00 13 1010.8
20260504021348 88 188 7.0 15.0 0.00 0.00 0.00 13 1010.8
20260504020834 88 174 8.0 19.0 0.00 0.00 0.00 12 1010.7
20260504020346 88 192 10.0 19.0 0.00 0.00 0.00 12 1010.5
20260504015831 89 182 8.0 18.0 0.00 0.00 0.00 12 1010.3
20260504015343 89 204 9.0 18.0 0.00 0.00 0.00 11 1010.4
20260504014831 90 193 9.0 18.0 0.00 0.00 0.00 11 1010.3
20260504014323 90 182 7.0 17.0 0.00 0.00 0.00 11 1010.2
20260504013830 91 207 6.0 16.0 0.00 0.00 0.00 11 1010.1
20260504013326 91 239 7.0 14.0 0.00 0.00 0.00 10 1010.0
20260504012834 91 225 6.0 14.0 0.00 0.00 0.00 10 1010.0
20260504012324 92 193 8.0 20.0 0.00 0.00 0.00 10 1010.1
20260504011831 92 205 7.0 20.0 0.00 0.00 0.00 10 1010.1
20260504011324 93 186 8.0 17.0 0.00 0.00 0.00 10 1010.0
20260504010832 94 198 4.0 16.0 0.00 0.00 0.00 10 1010.0
20260504010323 94 211 6.0 16.0 0.00 0.00 0.00 10 1010.0
20260504005830 94 240 6.0 14.0 0.00 0.00 0.00 10 1010.0
20260504005343 94 233 9.0 14.0 0.00 0.00 0.00 9 1010.0
20260504004834 95 192 7.0 14.0 0.00 0.00 0.00 10 1010.1
20260504004326 95 182 9.0 15.0 0.00 0.00 0.00 10 1010.0
20260504003834 95 190 3.0 15.0 0.00 0.00 0.00 10 1009.9
20260504003326 96 206 7.0 16.0 0.00 0.00 0.00 9 1009.9
20260504002832 96 178 5.0 14.0 0.00 0.00 0.00 10 1010.0
20260504002323 96 197 6.0 14.0 0.00 0.00 0.00 9 1009.9
20260504001851 96 211 6.0 12.0 0.00 0.00 0.00 9 1009.8
20260504001321 96 185 5.0 16.0 0.00 0.00 0.00 9 1009.8
20260504000829 96 193 6.0 14.0 0.00 0.00 0.00 10 1009.9
20260504000321 97 190 7.0 18.0 0.00 0.00 0.00 9 1009.9
20260503235848 98 182 10.0 18.0 0.00 0.00 0.00 9 1010.0
20260503235323 98 215 4.0 12.0 0.00 0.00 0.00 9 1009.9
20260503234850 98 226 6.0 12.0 0.00 0.00 0.00 8 1009.9
20260503234320 98 173 2.0 15.0 0.00 0.00 0.00 9 1009.9
20260503233827 98 163 7.0 15.0 0.00 0.00 0.00 9 1010.0
20260503233319 99 196 7.0 13.0 0.00 0.00 0.00 9 1010.0
20260503232827 99 267 2.0 10.0 0.00 0.00 0.00 10 1010.0
20260503232339 99 255 5.0 10.0 0.00 0.00 0.00 8 1010.0
20260503231825 99 186 5.0 10.0 0.00 0.00 0.00 9 1010.1
20260503231335 98 287 4.0 13.0 0.00 0.00 0.00 10 1010.0
20260503230822 98 212 1.0 10.0 0.00 0.00 0.00 11 1010.1
20260503230332 97 187 2.0 15.0 0.00 0.00 0.00 11 1010.2
20260503225820 98 189 5.0 15.0 0.00 0.00 0.00 10 1010.3
20260503225316 98 228 7.0 15.0 0.00 0.00 0.00 9 1010.4
20260503224843 99 194 1.0 7.0 0.00 0.00 0.00 10 1010.4
20260503224314 98 202 3.0 9.0 0.00 0.00 0.00 10 1010.7
20260503223823 98 179 1.0 9.0 0.00 0.00 0.00 10 1010.8
20260503223315 98 205 4.0 11.0 0.00 0.00 0.00 10 1010.9
20260503222821 98 244 4.0 14.0 0.00 0.00 0.00 10 1010.9
20260503222334 98 253 5.0 14.0 0.00 0.00 0.00 10 1011.0
20260503221822 99 198 5.0 14.0 0.00 0.00 0.00 10 1011.2
20260503221333 99 185 1.0 7.0 0.00 0.00 0.00 10 1011.2
20260503220824 99 186 2.0 7.0 0.00 0.00 0.00 11 1011.3
20260503220336 99 186 4.0 7.0 0.00 0.00 0.00 10 1011.4
20260503215821 98 193 0.0 8.0 0.00 0.00 0.00 10 1011.6
20260503215334 98 193 3.0 10.0 0.00 0.00 0.00 11 1011.7
20260503214820 98 180 1.0 15.0 0.00 0.00 0.00 10 1011.7
20260503214333 97 187 7.0 15.0 0.00 0.00 0.00 11 1011.9